,,,PA_Meas_PMT16A,,PR_Meas_QMR101_102,,RH_Meas_QMH101,,SR_Meas_QMS101,,TA_Meas_QMH101,,GenWind,,GenWind,
date,time,status,PA,status,PR,status,RH,status,SR,status,TA,status,DirAvg,status,SpdAvg,
2009-02-15, 00:00:04,VALID,1005.34,VALID,0,VALID,87.2744,VALID,0,VALID,24.3246,VALID,25,VALID,1.32539,
2009-02-15, 00:01:04,VALID,1005.31,VALID,0,VALID,86.7251,VALID,0.100563,VALID,24.2875,VALID,6,VALID,2.7375,
2009-02-15, 00:02:04,VALID,1005.37,VALID,0,VALID,87.3659,VALID,0.100563,VALID,24.2857,VALID,64,VALID,0.917578,
2009-02-15, 00:03:04,VALID,1005.38,VALID,0,VALID,87.4041,VALID,0.100563,VALID,24.2662,VALID,25,VALID,2.73672,
2009-02-15, 00:04:04,VALID,1005.42,VALID,0,VALID,87.8466,VALID,0.100563,VALID,24.2662,VALID,18,VALID,1.0125,
2009-02-15, 00:05:04,VALID,1005.42,VALID,0,VALID,88.1899,VALID,0.100563,VALID,24.2078,VALID,52,VALID,0.828125,
2009-02-15, 00:06:04,VALID,1005.44,VALID,0,VALID,88.5484,VALID,0,VALID,24.1707,VALID,42,VALID,1.79688,
2009-02-15, 00:07:04,VALID,1005.39,VALID,0,VALID,88.8383,VALID,0.100563,VALID,24.1689,VALID,72,VALID,1.37383,
2009-02-15, 00:08:04,VALID,1005.48,VALID,0,VALID,89.2732,VALID,0,VALID,24.1689,VALID,64,VALID,1.25586,
2009-02-15, 00:09:04,VALID,1005.47,VALID,0,VALID,89.4563,VALID,0,VALID,24.1689,VALID,330,VALID,0.952344,
2009-02-15, 00:10:04,VALID,1005.51,VALID,0,VALID,89.6393,VALID,0,VALID,24.1707,VALID,29,VALID,2.18086,
2009-02-15, 00:11:04,VALID,1005.5,VALID,0,VALID,89.8835,VALID,0,VALID,24.13,VALID,348,VALID,1.74453,
2009-02-15, 00:12:04,VALID,1005.48,VALID,0.5,VALID,90.2115,VALID,0,VALID,24.13,VALID,6,VALID,1.05273,
2009-02-15, 00:13:04,VALID,1005.51,VALID,0,VALID,90.5396,VALID,0,VALID,24.13,VALID,30,VALID,1.175,
2009-02-15, 00:14:04,VALID,1005.52,VALID,0,VALID,90.86,VALID,0.100563,VALID,24.1318,VALID,25,VALID,1.41328,
2009-02-15, 00:15:04,VALID,1005.53,VALID,0,VALID,90.9439,VALID,0.100563,VALID,24.0716,VALID,22,VALID,0.963281,
2009-02-15, 00:16:04,VALID,1005.48,VALID,0,VALID,91.2567,VALID,0.100563,VALID,24.091,VALID,16,VALID,1.00391,
2009-02-15, 00:17:04,VALID,1005.52,VALID,0,VALID,91.4398,VALID,0.100563,VALID,24.091,VALID,3,VALID,2.17227,
2009-02-15, 00:18:04,VALID,1005.59,VALID,0,VALID,91.7068,VALID,0,VALID,24.0503,VALID,11,VALID,1.86094,
2009-02-15, 00:19:04,VALID,1005.58,VALID,0,VALID,91.7678,VALID,0,VALID,24.091,VALID,36,VALID,1.5207,
2009-02-15, 00:20:04,VALID,1005.6,VALID,0,VALID,91.8059,VALID,0,VALID,24.0716,VALID,17,VALID,1.48203,
2009-02-15, 00:21:04,VALID,1005.59,VALID,0,VALID,91.8822,VALID,0.100563,VALID,24.1123,VALID,357,VALID,2.10508,
2009-02-15, 00:22:04,VALID,1005.64,VALID,0.5,VALID,91.8822,VALID,0,VALID,24.091,VALID,33,VALID,2.1082,
2009-02-15, 00:23:04,VALID,1005.58,VALID,0,VALID,91.8517,VALID,0,VALID,24.1513,VALID,68,VALID,2.15664,
2009-02-15, 00:24:04,VALID,1005.62,VALID,0,VALID,91.7907,VALID,0,VALID,24.1318,VALID,31,VALID,1.82383,
2009-02-15, 00:25:04,VALID,1005.63,VALID,0,VALID,91.8441,VALID,0,VALID,24.13,VALID,1,VALID,1.2375,
2009-02-15, 00:26:04,VALID,1005.59,VALID,0,VALID,91.8899,VALID,0,VALID,24.1105,VALID,46,VALID,1.10469,
2009-02-15, 00:27:04,VALID,1005.79,VALID,0,VALID,91.8441,VALID,0,VALID,24.0947,VALID,5,VALID,2.44023,
2009-02-15, 00:28:04,VALID,1005.67,VALID,0,VALID,91.8059,VALID,0,VALID,24.0734,VALID,34,VALID,1.91641,
2009-02-15, 00:29:04,VALID,1005.68,VALID,0,VALID,91.6915,VALID,0,VALID,24.0539,VALID,16,VALID,3.35391,
2009-02-15, 00:30:04,VALID,1005.69,VALID,0,VALID,91.8059,VALID,0,VALID,24.0539,VALID,12,VALID,1.18477,
2009-02-15, 00:31:04,VALID,1005.58,VALID,0,VALID,91.7068,VALID,0,VALID,23.9937,VALID,41,VALID,3.89922,
2009-02-15, 00:32:04,VALID,1006.19,VALID,0.5,VALID,91.7602,VALID,0,VALID,24.0363,VALID,43,VALID,2.07578,
2009-02-15, 00:33:04,VALID,1005.64,VALID,0,VALID,91.7602,VALID,0,VALID,23.9955,VALID,34,VALID,1.79102,
2009-02-15, 00:34:04,VALID,1005.63,VALID,0,VALID,91.8441,VALID,0,VALID,23.9566,VALID,359,VALID,1.43047,
2009-02-15, 00:35:04,VALID,1005.69,VALID,0,VALID,91.9585,VALID,0,VALID,23.9779,VALID,39,VALID,2.07578,
2009-02-15, 00:36:04,VALID,1005.68,VALID,0,VALID,91.7373,VALID,0,VALID,23.9177,VALID,27,VALID,3.66797,
2009-02-15, 00:37:04,VALID,1005.62,VALID,0.5,VALID,91.722,VALID,0,VALID,23.9177,VALID,94,VALID,2.26719,
2009-02-15, 00:38:04,VALID,1005.64,VALID,0,VALID,92.073,VALID,0,VALID,23.9177,VALID,15,VALID,1.44687,
2009-02-15, 00:39:04,VALID,1005.65,VALID,0,VALID,91.8288,VALID,0,VALID,23.8787,VALID,15,VALID,3.54141,
2009-02-15, 00:40:04,VALID,1005.62,VALID,0,VALID,92.0272,VALID,0,VALID,23.8593,VALID,13,VALID,2.42773,
2009-02-15, 00:41:04,VALID,1005.57,VALID,0.5,VALID,92.2255,VALID,0,VALID,23.8203,VALID,23,VALID,1.65937,
2009-02-15, 00:42:04,VALID,1005.63,VALID,0,VALID,92.3857,VALID,0,VALID,23.8009,VALID,23,VALID,1.48203,
2009-02-15, 00:43:04,VALID,1005.59,VALID,0,VALID,92.5231,VALID,0,VALID,23.7619,VALID,41,VALID,1.48438,
2009-02-15, 00:44:04,VALID,1005.61,VALID,0,VALID,92.6451,VALID,0,VALID,23.7425,VALID,36,VALID,3.24727,
2009-02-15, 00:45:04,VALID,1005.57,VALID,0.5,VALID,92.7138,VALID,0,VALID,23.7035,VALID,45,VALID,1.10625,
2009-02-15, 00:46:04,VALID,1005.6,VALID,0,VALID,92.7519,VALID,0,VALID,23.6841,VALID,30,VALID,2.38906,
2009-02-15, 00:47:04,VALID,1005.56,VALID,0,VALID,92.8664,VALID,0,VALID,23.6841,VALID,22,VALID,2.54844,
2009-02-15, 00:48:04,VALID,1005.57,VALID,0,VALID,92.9503,VALID,0,VALID,23.6452,VALID,18,VALID,1.95156,
2009-02-15, 00:49:04,VALID,1005.62,VALID,0.5,VALID,93.0113,VALID,0,VALID,23.6239,VALID,36,VALID,2.3457,
2009-02-15, 00:50:04,VALID,1005.6,VALID,0,VALID,92.935,VALID,0,VALID,23.6452,VALID,37,VALID,1.76094,
2009-02-15, 00:51:04,VALID,1005.62,VALID,0,VALID,93.0571,VALID,0,VALID,23.6452,VALID,19,VALID,1.41172,
2009-02-15, 00:52:04,VALID,1005.6,VALID,0,VALID,93.1181,VALID,0,VALID,23.6257,VALID,53,VALID,1.63242,
2009-02-15, 00:53:04,VALID,1005.56,VALID,0.5,VALID,93.2097,VALID,0,VALID,23.6062,VALID,19,VALID,2.53203,
2009-02-15, 00:54:04,VALID,1005.52,VALID,0,VALID,93.3012,VALID,0,VALID,23.5868,VALID,3,VALID,2.48789,
2009-02-15, 00:55:04,VALID,1005.55,VALID,0,VALID,93.3546,VALID,0,VALID,23.5868,VALID,23,VALID,1.40508,
2009-02-15, 00:56:04,VALID,1005.48,VALID,0,VALID,93.347,VALID,0.100563,VALID,23.546,VALID,2,VALID,1.86602,
2009-02-15, 00:57:04,VALID,1005.52,VALID,0,VALID,93.3241,VALID,0,VALID,23.5071,VALID,71,VALID,1.25195,
2009-02-15, 00:58:04,VALID,1005.56,VALID,0.5,VALID,93.3928,VALID,0.100563,VALID,23.5071,VALID,30,VALID,2.12695,
2009-02-15, 00:59:04,VALID,1005.48,VALID,0,VALID,93.4004,VALID,0,VALID,23.4877,VALID,25,VALID,2.28164,
2009-02-15, 01:00:04,VALID,1005.46,VALID,0,VALID,93.4843,VALID,0,VALID,23.4877,VALID,40,VALID,2.2043,
2009-02-15, 01:01:04,VALID,1005.47,VALID,0,VALID,93.5606,VALID,0,VALID,23.4877,VALID,52,VALID,0.930078,
2009-02-15, 01:02:04,VALID,1005.5,VALID,0,VALID,93.5758,VALID,0.100563,VALID,23.447,VALID,27,VALID,2.85586,
2009-02-15, 01:03:04,VALID,1005.44,VALID,0,VALID,93.6369,VALID,0.100563,VALID,23.4682,VALID,38,VALID,1.73672,
2009-02-15, 01:04:04,VALID,1005.45,VALID,0.5,VALID,93.6903,VALID,0.100563,VALID,23.4487,VALID,20,VALID,1.23359,
2009-02-15, 01:05:04,VALID,1005.42,VALID,0,VALID,93.7361,VALID,0.100563,VALID,23.4487,VALID,17,VALID,1.79922,
2009-02-15, 01:06:04,VALID,1005.38,VALID,0,VALID,93.7513,VALID,0,VALID,23.4293,VALID,9,VALID,2.24219,
2009-02-15, 01:07:04,VALID,1005.39,VALID,0,VALID,93.7818,VALID,0.100563,VALID,23.4293,VALID,35,VALID,1.23672,
2009-02-15, 01:08:04,VALID,1005.37,VALID,0,VALID,93.8352,VALID,0.100563,VALID,23.4487,VALID,30,VALID,0.7125,
2009-02-15, 01:09:04,VALID,1005.42,VALID,0,VALID,93.7895,VALID,0.100563,VALID,23.4098,VALID,15,VALID,2.15352,
2009-02-15, 01:10:04,VALID,1005.35,VALID,0,VALID,93.8505,VALID,0.100563,VALID,23.3904,VALID,8,VALID,2.04844,
2009-02-15, 01:11:04,VALID,1005.42,VALID,0,VALID,93.8429,VALID,0,VALID,23.3921,VALID,24,VALID,2.50742,
2009-02-15, 01:12:04,VALID,1005.39,VALID,0,VALID,93.7971,VALID,0,VALID,23.3921,VALID,39,VALID,1.07305,
2009-02-15, 01:13:04,VALID,1005.41,VALID,0.5,VALID,93.82,VALID,0,VALID,23.4116,VALID,34,VALID,1.76875,
2009-02-15, 01:14:04,VALID,1005.39,VALID,0,VALID,93.82,VALID,0,VALID,23.3921,VALID,61,VALID,1.43633,
2009-02-15, 01:15:04,VALID,1005.4,VALID,0,VALID,93.7132,VALID,0,VALID,23.3939,VALID,77,VALID,2.22305,
2009-02-15, 01:16:04,VALID,1005.38,VALID,0,VALID,93.7284,VALID,0,VALID,23.3727,VALID,33,VALID,2.18438,
2009-02-15, 01:17:04,VALID,1005.4,VALID,0,VALID,93.7208,VALID,0,VALID,23.3939,VALID,47,VALID,1.52656,
2009-02-15, 01:18:04,VALID,1005.4,VALID,0,VALID,93.6369,VALID,0,VALID,23.3532,VALID,69,VALID,2.25508,
2009-02-15, 01:19:04,VALID,1005.39,VALID,0,VALID,93.5453,VALID,0,VALID,23.3727,VALID,44,VALID,1.72031,
2009-02-15, 01:20:04,VALID,1005.44,VALID,0,VALID,93.5148,VALID,0,VALID,23.3727,VALID,54,VALID,1.70781,
2009-02-15, 01:21:04,VALID,1005.37,VALID,0,VALID,93.4538,VALID,0,VALID,23.3532,VALID,71,VALID,1.44492,
2009-02-15, 01:22:04,VALID,1005.41,VALID,0,VALID,93.4309,VALID,0,VALID,23.3337,VALID,70,VALID,1.10391,
2009-02-15, 01:23:04,VALID,1005.43,VALID,0,VALID,93.3165,VALID,0,VALID,23.3143,VALID,72,VALID,1.3082,
2009-02-15, 01:24:04,VALID,1005.45,VALID,0,VALID,93.141,VALID,0,VALID,23.3143,VALID,44,VALID,1.76836,
2009-02-15, 01:25:04,VALID,1005.45,VALID,0,VALID,92.9121,VALID,0,VALID,23.3337,VALID,37,VALID,1.91562,
2009-02-15, 01:26:04,VALID,1005.44,VALID,0.5,VALID,92.9045,VALID,0,VALID,23.3337,VALID,44,VALID,0.983984,
2009-02-15, 01:27:04,VALID,1005.43,VALID,0,VALID,92.8969,VALID,0,VALID,23.2931,VALID,23,VALID,2.69453,
2009-02-15, 01:28:04,VALID,1005.41,VALID,0,VALID,92.9808,VALID,0,VALID,23.3337,VALID,22,VALID,1.78594,
2009-02-15, 01:29:04,VALID,1005.44,VALID,0,VALID,92.8892,VALID,0,VALID,23.2948,VALID,61,VALID,1.54805,
2009-02-15, 01:30:04,VALID,1005.43,VALID,0,VALID,92.8511,VALID,0,VALID,23.2966,VALID,52,VALID,1.43086,
2009-02-15, 01:31:04,VALID,1005.44,VALID,0,VALID,92.9121,VALID,0,VALID,23.2754,VALID,30,VALID,2.18984,
2009-02-15, 01:32:04,VALID,1005.42,VALID,0,VALID,92.9655,VALID,0,VALID,23.2771,VALID,47,VALID,0.917578,
2009-02-15, 01:33:04,VALID,1005.43,VALID,0,VALID,93.0876,VALID,0,VALID,23.2771,VALID,17,VALID,2.325,
2009-02-15, 01:34:04,VALID,1005.44,VALID,0,VALID,93.1105,VALID,0,VALID,23.2541,VALID,19,VALID,1.54922,
2009-02-15, 01:35:04,VALID,1005.43,VALID,0,VALID,93.1181,VALID,0,VALID,23.2559,VALID,21,VALID,1.74102,
2009-02-15, 01:36:04,VALID,1005.46,VALID,0,VALID,93.141,VALID,0,VALID,23.2364,VALID,16,VALID,1.60391,
2009-02-15, 01:37:04,VALID,1005.45,VALID,0,VALID,93.1334,VALID,0,VALID,23.2364,VALID,28,VALID,1.24375,
2009-02-15, 01:38:04,VALID,1005.48,VALID,0,VALID,93.0723,VALID,0,VALID,23.217,VALID,55,VALID,0.767969,
2009-02-15, 01:39:04,VALID,1005.46,VALID,0,VALID,93.1334,VALID,0,VALID,23.2364,VALID,32,VALID,0.911719,
2009-02-15, 01:40:04,VALID,1005.48,VALID,0,VALID,93.1639,VALID,0,VALID,23.2364,VALID,29,VALID,1.48477,
2009-02-15, 01:41:04,VALID,1005.5,VALID,0,VALID,92.9274,VALID,0,VALID,23.1975,VALID,47,VALID,2.75391,
2009-02-15, 01:42:04,VALID,1005.48,VALID,0,VALID,92.8282,VALID,0,VALID,23.217,VALID,22,VALID,2.25586,
2009-02-15, 01:43:04,VALID,1005.5,VALID,0,VALID,92.6375,VALID,0,VALID,23.2364,VALID,18,VALID,2.40703,
2009-02-15, 01:44:04,VALID,1005.49,VALID,0.5,VALID,92.3018,VALID,0,VALID,23.2559,VALID,44,VALID,1.41562,
2009-02-15, 01:45:04,VALID,1005.46,VALID,0,VALID,92.1187,VALID,0,VALID,23.2771,VALID,22,VALID,3.63398,
2009-02-15, 01:46:04,VALID,1005.42,VALID,0,VALID,92.134,VALID,0,VALID,23.2559,VALID,39,VALID,1.41992,
2009-02-15, 01:47:04,VALID,1005.47,VALID,0,VALID,92.2713,VALID,0,VALID,23.2559,VALID,36,VALID,1.34102,
2009-02-15, 01:48:04,VALID,1005.43,VALID,0,VALID,92.2866,VALID,0,VALID,23.2382,VALID,21,VALID,1.69258,
2009-02-15, 01:49:04,VALID,1005.39,VALID,0,VALID,92.3095,VALID,0,VALID,23.217,VALID,22,VALID,1.55,
2009-02-15, 01:50:04,VALID,1005.36,VALID,0,VALID,92.3476,VALID,0,VALID,23.1975,VALID,35,VALID,1.13086,
2009-02-15, 01:51:04,VALID,1005.4,VALID,0,VALID,92.34,VALID,0,VALID,23.1957,VALID,47,VALID,1.36602,
2009-02-15, 01:52:04,VALID,1005.43,VALID,0,VALID,92.3247,VALID,0,VALID,23.217,VALID,27,VALID,1.61836,
2009-02-15, 01:53:04,VALID,1005.39,VALID,0,VALID,92.3934,VALID,0,VALID,23.1763,VALID,51,VALID,1.25742,
2009-02-15, 01:54:04,VALID,1005.42,VALID,0,VALID,92.1798,VALID,0,VALID,23.1568,VALID,50,VALID,1.3875,
2009-02-15, 01:55:04,VALID,1005.41,VALID,0,VALID,92.0958,VALID,0,VALID,23.1586,VALID,28,VALID,2.68359,
2009-02-15, 01:56:04,VALID,1005.4,VALID,0,VALID,91.8975,VALID,0,VALID,23.1763,VALID,27,VALID,3.0625,
2009-02-15, 01:57:04,VALID,1005.39,VALID,0,VALID,91.7373,VALID,0.100563,VALID,23.1957,VALID,18,VALID,3.58594,
2009-02-15, 01:58:04,VALID,1005.42,VALID,0,VALID,91.6305,VALID,0,VALID,23.1957,VALID,33,VALID,2.4707,
2009-02-15, 01:59:04,VALID,1005.43,VALID,0,VALID,91.6229,VALID,0.100563,VALID,23.1745,VALID,63,VALID,1.67734,
2009-02-15, 02:00:04,VALID,1005.44,VALID,0,VALID,91.661,VALID,0.100563,VALID,23.1763,VALID,36,VALID,1.73789,
2009-02-15, 02:01:04,VALID,1005.42,VALID,0,VALID,91.8517,VALID,0.100563,VALID,23.1975,VALID,70,VALID,1.06875,
2009-02-15, 02:02:04,VALID,1005.42,VALID,0,VALID,91.8288,VALID,0.100563,VALID,23.1374,VALID,67,VALID,1.8457,
2009-02-15, 02:03:04,VALID,1005.41,VALID,0,VALID,91.8517,VALID,0,VALID,23.0984,VALID,81,VALID,1.91055,
2009-02-15, 02:04:04,VALID,1005.41,VALID,0,VALID,91.9509,VALID,0.100563,VALID,23.0984,VALID,44,VALID,1.19023,
2009-02-15, 02:05:04,VALID,1005.37,VALID,0,VALID,91.9356,VALID,0,VALID,23.1002,VALID,33,VALID,1.58203,
2009-02-15, 02:06:04,VALID,1005.35,VALID,0,VALID,92.0501,VALID,0.100563,VALID,23.1002,VALID,66,VALID,1.12656,
2009-02-15, 02:07:04,VALID,1005.32,VALID,0,VALID,92.1874,VALID,0,VALID,23.0613,VALID,49,VALID,0.660547,
2009-02-15, 02:08:04,VALID,1005.31,VALID,0,VALID,92.1569,VALID,0.100563,VALID,23.0418,VALID,23,VALID,1.125,
2009-02-15, 02:09:04,VALID,1005.29,VALID,0,VALID,92.3018,VALID,0.100563,VALID,23.0206,VALID,43,VALID,0.716016,
2009-02-15, 02:10:04,VALID,1005.21,VALID,0,VALID,92.2103,VALID,0,VALID,23.0012,VALID,25,VALID,1.03828,
2009-02-15, 02:11:04,VALID,1005.23,VALID,0,VALID,92.134,VALID,0,VALID,23.0029,VALID,63,VALID,1.28203,
2009-02-15, 02:12:04,VALID,1005.19,VALID,0.5,VALID,92.0653,VALID,0,VALID,23.0029,VALID,29,VALID,1.79766,
2009-02-15, 02:13:04,VALID,1005.16,VALID,0,VALID,91.9356,VALID,0,VALID,23.0418,VALID,67,VALID,0.894922,
2009-02-15, 02:14:04,VALID,1005.14,VALID,0,VALID,91.5084,VALID,0,VALID,23.0418,VALID,42,VALID,1.81055,
2009-02-15, 02:15:04,VALID,1005.13,VALID,0,VALID,91.1804,VALID,0,VALID,23.0613,VALID,81,VALID,1.40625,
2009-02-15, 02:16:04,VALID,1005.13,VALID,0,VALID,91.1422,VALID,0,VALID,23.1002,VALID,74,VALID,0.767969,
2009-02-15, 02:17:04,VALID,1005.08,VALID,0,VALID,91.0888,VALID,0,VALID,23.0807,VALID,47,VALID,1.13086,
2009-02-15, 02:18:04,VALID,1005.05,VALID,0,VALID,90.7837,VALID,0,VALID,23.0595,VALID,33,VALID,1.11953,
2009-02-15, 02:19:04,VALID,1005.02,VALID,0,VALID,90.6692,VALID,0,VALID,23.0807,VALID,64,VALID,1.51016,
2009-02-15, 02:20:04,VALID,1005.01,VALID,0,VALID,90.776,VALID,0,VALID,23.1002,VALID,104,VALID,1.6082,
2009-02-15, 02:21:04,VALID,1005.02,VALID,0,VALID,90.921,VALID,0,VALID,23.0807,VALID,92,VALID,1.44258,
2009-02-15, 02:22:04,VALID,1005.01,VALID,0,VALID,91.0431,VALID,0,VALID,23.0807,VALID,99,VALID,1.89063,
2009-02-15, 02:23:04,VALID,1005.02,VALID,0,VALID,91.1117,VALID,0,VALID,23.0807,VALID,102,VALID,1.99531,
2009-02-15, 02:24:04,VALID,1005.13,VALID,0,VALID,91.0507,VALID,0,VALID,23.0825,VALID,100,VALID,3.27656,
2009-02-15, 02:25:04,VALID,1005.05,VALID,0,VALID,91.1193,VALID,0,VALID,23.0613,VALID,96,VALID,1.85,
2009-02-15, 02:26:04,VALID,1005.03,VALID,0,VALID,91.1041,VALID,0,VALID,23.0613,VALID,96,VALID,2.08672,
2009-02-15, 02:27:04,VALID,1005.01,VALID,0,VALID,91.0354,VALID,0,VALID,23.0613,VALID,100,VALID,1.91016,
2009-02-15, 02:28:04,VALID,1004.99,VALID,0,VALID,91.127,VALID,0,VALID,23.0206,VALID,104,VALID,1.71875,
2009-02-15, 02:29:04,VALID,1004.97,VALID,0,VALID,91.2567,VALID,0.100563,VALID,23.0418,VALID,92,VALID,0.851172,
2009-02-15, 02:30:04,VALID,1004.93,VALID,0,VALID,91.3101,VALID,0,VALID,23.0012,VALID,96,VALID,0.8375,
2009-02-15, 02:31:04,VALID,1004.93,VALID,0,VALID,91.3482,VALID,0,VALID,23.0029,VALID,80,VALID,0.538672,
2009-02-15, 02:32:04,VALID,1004.9,VALID,0,VALID,91.3864,VALID,0,VALID,22.964,VALID,56,VALID,0.618359,
2009-02-15, 02:33:04,VALID,1004.9,VALID,0,VALID,91.5008,VALID,0,VALID,22.964,VALID,66,VALID,0.846094,
2009-02-15, 02:34:04,VALID,1004.88,VALID,0.5,VALID,91.6076,VALID,0,VALID,22.9852,VALID,94,VALID,0.558984,
2009-02-15, 02:35:04,VALID,1004.85,VALID,0,VALID,91.6534,VALID,0,VALID,22.964,VALID,107,VALID,0.670313,
2009-02-15, 02:36:04,VALID,1004.83,VALID,0,VALID,91.7983,VALID,0,VALID,22.9445,VALID,103,VALID,0.469531,
2009-02-15, 02:37:04,VALID,1004.78,VALID,0,VALID,92.0043,VALID,0,VALID,22.9428,VALID,145,VALID,0.842188,
2009-02-15, 02:38:04,VALID,1004.74,VALID,0,VALID,92.073,VALID,0,VALID,22.9445,VALID,146,VALID,0.403906,
2009-02-15, 02:39:04,VALID,1004.69,VALID,0,VALID,92.1416,VALID,0,VALID,22.9445,VALID,146,VALID,0.382813,
2009-02-15, 02:40:04,VALID,1004.66,VALID,0,VALID,92.2179,VALID,0,VALID,22.9039,VALID,146,VALID,0.478125,
2009-02-15, 02:41:04,VALID,1004.61,VALID,0,VALID,92.4086,VALID,0,VALID,22.9251,VALID,146,VALID,0.0519531,
2009-02-15, 02:42:04,VALID,1004.59,VALID,0,VALID,92.462,VALID,0,VALID,22.9056,VALID,146,VALID,0,
2009-02-15, 02:43:04,VALID,1004.56,VALID,0,VALID,92.6451,VALID,0,VALID,22.8861,VALID,146,VALID,0,
2009-02-15, 02:44:04,VALID,1004.53,VALID,0,VALID,92.874,VALID,0,VALID,22.9056,VALID,146,VALID,0.457031,
2009-02-15, 02:45:04,VALID,1004.55,VALID,0,VALID,93.08,VALID,0,VALID,22.9251,VALID,146,VALID,0.172656,
2009-02-15, 02:46:04,VALID,1004.54,VALID,0,VALID,92.9732,VALID,0,VALID,22.9056,VALID,146,VALID,0.0820313,
2009-02-15, 02:47:04,VALID,1004.58,VALID,0,VALID,92.9655,VALID,0,VALID,22.8861,VALID,145,VALID,0,
2009-02-15, 02:48:04,VALID,1004.61,VALID,0,VALID,93.0495,VALID,0,VALID,22.8844,VALID,95,VALID,0.721094,
2009-02-15, 02:49:04,VALID,1004.64,VALID,0,VALID,93.1334,VALID,0,VALID,22.8861,VALID,92,VALID,0.866016,
2009-02-15, 02:50:04,VALID,1004.64,VALID,0,VALID,93.1334,VALID,0,VALID,22.8472,VALID,93,VALID,1.10938,
2009-02-15, 02:51:04,VALID,1004.64,VALID,0,VALID,93.2173,VALID,0,VALID,22.8278,VALID,100,VALID,0.996484,
2009-02-15, 02:52:04,VALID,1004.62,VALID,0.5,VALID,93.3012,VALID,0,VALID,22.7888,VALID,97,VALID,0.300781,
2009-02-15, 02:53:04,VALID,1004.57,VALID,0,VALID,93.3928,VALID,0,VALID,22.7888,VALID,97,VALID,0.309375,
2009-02-15, 02:54:04,VALID,1004.51,VALID,0,VALID,93.4919,VALID,0,VALID,22.7888,VALID,97,VALID,0.305859,
2009-02-15, 02:55:04,VALID,1004.45,VALID,0,VALID,93.5682,VALID,0,VALID,22.7906,VALID,97,VALID,0,
2009-02-15, 02:56:04,VALID,1004.46,VALID,0,VALID,93.5911,VALID,0,VALID,22.7677,VALID,97,VALID,0,
2009-02-15, 02:57:04,VALID,1004.43,VALID,0,VALID,93.6598,VALID,0,VALID,22.7888,VALID,95,VALID,0.208203,
2009-02-15, 02:58:04,VALID,1004.43,VALID,0,VALID,93.7208,VALID,0,VALID,22.7871,VALID,95,VALID,0.0199219,
2009-02-15, 02:59:04,VALID,1004.41,VALID,0,VALID,93.7437,VALID,0,VALID,22.7888,VALID,83,VALID,0.196484,
2009-02-15, 03:00:04,VALID,1004.43,VALID,0,VALID,93.6674,VALID,0,VALID,22.7499,VALID,51,VALID,0.482031,
2009-02-15, 03:01:04,VALID,1004.4,VALID,0,VALID,93.6826,VALID,0,VALID,22.7305,VALID,51,VALID,0.244141,
2009-02-15, 03:02:04,VALID,1004.41,VALID,0,VALID,93.7361,VALID,0,VALID,22.7093,VALID,51,VALID,0.248437,
2009-02-15, 03:03:04,VALID,1004.44,VALID,0,VALID,93.7666,VALID,0,VALID,22.711,VALID,64,VALID,0.426562,
2009-02-15, 03:04:04,VALID,1004.41,VALID,0,VALID,93.7666,VALID,0,VALID,22.6915,VALID,95,VALID,0.720703,
2009-02-15, 03:05:04,VALID,1004.4,VALID,0,VALID,93.9039,VALID,0,VALID,22.711,VALID,121,VALID,0.676562,
2009-02-15, 03:06:04,VALID,1004.41,VALID,0,VALID,94.0183,VALID,0,VALID,22.7093,VALID,136,VALID,0.820703,
2009-02-15, 03:07:04,VALID,1004.41,VALID,0,VALID,93.9802,VALID,0,VALID,22.7287,VALID,135,VALID,0.895703,
2009-02-15, 03:08:04,VALID,1004.36,VALID,0,VALID,93.9954,VALID,0,VALID,22.7305,VALID,144,VALID,0.691406,
2009-02-15, 03:09:04,VALID,1004.38,VALID,0,VALID,94.0794,VALID,0,VALID,22.7482,VALID,144,VALID,0.308203,
2009-02-15, 03:10:04,VALID,1004.35,VALID,0,VALID,94.0565,VALID,0,VALID,22.7499,VALID,144,VALID,0.349219,
2009-02-15, 03:11:04,VALID,1004.34,VALID,0,VALID,94.0336,VALID,0,VALID,22.7287,VALID,144,VALID,0,
2009-02-15, 03:12:04,VALID,1004.32,VALID,0,VALID,94.1175,VALID,0,VALID,22.7694,VALID,144,VALID,0,
2009-02-15, 03:13:04,VALID,1004.3,VALID,0,VALID,94.1862,VALID,0,VALID,22.7677,VALID,144,VALID,0.280469,
2009-02-15, 03:14:04,VALID,1004.29,VALID,0,VALID,94.1709,VALID,0,VALID,22.7871,VALID,144,VALID,0,
2009-02-15, 03:15:04,VALID,1004.33,VALID,0,VALID,94.209,VALID,0,VALID,22.8278,VALID,144,VALID,0,
2009-02-15, 03:16:04,VALID,1004.36,VALID,0,VALID,94.1785,VALID,0,VALID,22.8083,VALID,144,VALID,0,
2009-02-15, 03:17:04,VALID,1004.38,VALID,0,VALID,94.2167,VALID,0,VALID,22.8083,VALID,144,VALID,0,
2009-02-15, 03:18:04,VALID,1004.41,VALID,0,VALID,94.2243,VALID,0,VALID,22.8278,VALID,144,VALID,0,
2009-02-15, 03:19:04,VALID,1004.42,VALID,0,VALID,94.1938,VALID,0,VALID,22.8278,VALID,144,VALID,0,
2009-02-15, 03:20:04,VALID,1004.44,VALID,0,VALID,94.1404,VALID,0,VALID,22.7888,VALID,120,VALID,0,
2009-02-15, 03:21:04,VALID,1004.44,VALID,0,VALID,94.148,VALID,0,VALID,22.7888,VALID,124,VALID,0.890234,
2009-02-15, 03:22:04,VALID,1004.44,VALID,0,VALID,94.2548,VALID,0,VALID,22.7888,VALID,162,VALID,0.750391,
2009-02-15, 03:23:04,VALID,1004.41,VALID,0.5,VALID,94.2548,VALID,0,VALID,22.8083,VALID,165,VALID,0.899609,
2009-02-15, 03:24:04,VALID,1004.42,VALID,0,VALID,94.2243,VALID,0,VALID,22.8278,VALID,137,VALID,1.19922,
2009-02-15, 03:25:04,VALID,1004.45,VALID,0,VALID,94.1785,VALID,0,VALID,22.8861,VALID,148,VALID,0.741406,
2009-02-15, 03:26:04,VALID,1004.42,VALID,0,VALID,94.0183,VALID,0,VALID,22.9056,VALID,147,VALID,0.644922,
2009-02-15, 03:27:04,VALID,1004.44,VALID,0,VALID,93.9039,VALID,0,VALID,22.9039,VALID,147,VALID,0.496875,
2009-02-15, 03:28:04,VALID,1004.4,VALID,0,VALID,93.9039,VALID,0,VALID,22.964,VALID,133,VALID,0.703516,
2009-02-15, 03:29:04,VALID,1004.4,VALID,0,VALID,93.8657,VALID,0,VALID,22.964,VALID,98,VALID,0,
2009-02-15, 03:30:04,VALID,1004.39,VALID,0,VALID,93.8276,VALID,0,VALID,22.9834,VALID,100,VALID,0,
2009-02-15, 03:31:04,VALID,1004.38,VALID,0,VALID,93.7742,VALID,0,VALID,22.9817,VALID,100,VALID,0,
2009-02-15, 03:32:04,VALID,1004.34,VALID,0,VALID,93.7437,VALID,0,VALID,22.9834,VALID,100,VALID,0.0121094,
2009-02-15, 03:33:04,VALID,1004.31,VALID,0,VALID,93.6674,VALID,0,VALID,23.0029,VALID,100,VALID,0,
2009-02-15, 03:34:04,VALID,1004.31,VALID,0,VALID,93.6292,VALID,0,VALID,23.0029,VALID,71,VALID,0.328906,
2009-02-15, 03:35:04,VALID,1004.3,VALID,0,VALID,93.6445,VALID,0,VALID,23.0029,VALID,349,VALID,0.472266,
2009-02-15, 03:36:04,VALID,1004.3,VALID,0,VALID,93.9802,VALID,0,VALID,23.079,VALID,177,VALID,1.98398,
2009-02-15, 03:37:04,VALID,1004.31,VALID,0,VALID,93.8276,VALID,0,VALID,23.2559,VALID,145,VALID,0.914063,
2009-02-15, 03:38:04,VALID,1004.28,VALID,0,VALID,93.614,VALID,0.100563,VALID,23.355,VALID,145,VALID,0.975,
2009-02-15, 03:39:04,VALID,1004.28,VALID,0,VALID,93.4767,VALID,0,VALID,23.4116,VALID,179,VALID,1.36133,
2009-02-15, 03:40:04,VALID,1004.28,VALID,0,VALID,93.3394,VALID,0,VALID,23.4894,VALID,193,VALID,0.767578,
2009-02-15, 03:41:04,VALID,1004.3,VALID,0,VALID,93.1334,VALID,0,VALID,23.5478,VALID,181,VALID,1.47109,
2009-02-15, 03:42:04,VALID,1004.31,VALID,0,VALID,93.0189,VALID,0,VALID,23.6452,VALID,131,VALID,0.236719,
2009-02-15, 03:43:04,VALID,1004.31,VALID,0,VALID,92.8587,VALID,0,VALID,23.6434,VALID,153,VALID,0.398438,
2009-02-15, 03:44:04,VALID,1004.37,VALID,0,VALID,92.7443,VALID,0,VALID,23.7035,VALID,149,VALID,0.628906,
2009-02-15, 03:45:04,VALID,1004.36,VALID,0,VALID,92.6833,VALID,0,VALID,23.7425,VALID,166,VALID,0.675391,
2009-02-15, 03:46:04,VALID,1004.4,VALID,0,VALID,92.4391,VALID,0,VALID,23.7619,VALID,181,VALID,1.22305,